CW4167 Weather Reports


Display with metric or nautical units.
time (UTC)temp
F
wind
direction
speed
MPH
gust
MPH
rain 1hr
in
rain 24hr
in
rain mn
in
humidity
%
barometer
mb
20260905122705 64 301 14.0 20.0 0.00 0.33 0.06 69 1006.1
20260905122207 64 282 17.0 32.0 0.00 0.33 0.06 68 1006.1
20260905115709 64 269 18.0 28.0 0.00 0.35 0.06 66 1005.7
20260905114709 64 271 17.0 24.0 0.00 0.36 0.06 67 1005.6
20260905113207 63 268 14.0 22.0 0.00 0.37 0.06 68 1005.7
20260905112707 63 257 18.0 26.0 0.00 0.38 0.06 68 1005.7
20260905112208 63 285 17.0 30.0 0.00 0.39 0.06 68 1005.6
20260905111208 63 282 15.0 24.0 0.00 0.39 0.06 71 1005.4
20260905105207 63 257 15.0 22.0 0.00 0.41 0.06 71 1005.4
20260905104708 64 265 19.0 25.0 0.00 0.41 0.06 69 1005.5
20260905104208 64 253 16.0 25.0 0.00 0.43 0.06 70 1005.4
20260905101707 63 256 16.0 22.0 0.00 0.45 0.06 72 1005.2
20260905101207 63 247 17.0 28.0 0.00 0.45 0.06 71 1005.1
20260905100209 63 266 19.0 29.0 0.00 0.45 0.06 71 1005.0
20260905094709 63 251 15.0 22.0 0.00 0.46 0.06 74 1004.9
20260905094209 62 269 14.0 23.0 0.00 0.46 0.06 75 1005.0
20260905093708 62 262 18.0 26.0 0.00 0.46 0.06 74 1005.0
20260905091707 61 259 14.0 24.0 0.00 0.47 0.06 78 1004.9
20260905091210 60 243 14.0 24.0 0.00 0.47 0.06 79 1004.8
20260905090207 60 256 17.0 24.0 0.00 0.47 0.06 79 1004.8
20260905085208 59 253 14.0 24.0 0.00 0.47 0.06 79 1004.8
20260905084708 59 269 16.0 23.0 0.00 0.47 0.06 79 1004.7
20260905083707 59 255 12.0 22.0 0.00 0.47 0.06 80 1004.7
20260905082207 59 247 13.0 24.0 0.00 0.48 0.06 81 1004.6
20260905081208 59 264 11.0 20.0 0.00 0.49 0.06 81 1004.5
20260905080707 59 262 11.0 17.0 0.00 0.49 0.06 80 1004.6
20260905075207 60 242 20.0 26.0 0.00 0.50 0.06 77 1004.2
20260905074708 60 259 16.0 23.0 0.00 0.51 0.06 78 1004.2
20260905074209 61 277 12.0 26.0 0.00 0.51 0.06 78 1004.2
20260905073207 61 253 15.0 25.0 0.00 0.51 0.06 78 1004.2
20260905071707 61 255 16.0 20.0 0.00 0.51 0.06 80 1004.0
20260905070207 60 229 13.0 18.0 0.00 0.51 0.06 82 1003.9
20260905065709 60 256 10.0 20.0 0.00 0.51 0.06 82 1003.9
20260905065209 60 230 12.0 24.0 0.00 0.51 0.06 83 1003.9
20260905064708 59 249 12.0 20.0 0.00 0.51 0.06 83 1003.9
20260905064208 59 245 14.0 22.0 0.00 0.51 0.06 83 1003.9
20260905061708 58 255 11.0 21.0 0.00 0.51 0.06 84 1003.7
20260905061207 58 272 11.0 17.0 0.00 0.51 0.06 84 1003.7
20260905060707 58 226 9.0 18.0 0.00 0.51 0.06 84 1003.5
20260905060209 58 252 10.0 21.0 0.00 0.51 0.06 85 1003.5
20260905053208 57 250 7.0 14.0 0.01 0.51 0.06 86 1003.4
20260905052707 57 267 11.0 17.0 0.01 0.51 0.06 86 1003.4
20260905044707 56 251 10.0 17.0 0.00 0.50 0.05 86 1002.9
20260905043207 56 263 10.0 20.0 0.00 0.50 0.05 87 1002.8
20260905041208 56 257 11.0 21.0 0.00 0.50 0.05 88 1002.7
20260905033208 56 241 9.0 17.0 0.00 0.50 0.05 88 1002.4
20260905032708 56 253 9.0 17.0 0.00 0.50 0.05 88 1002.3
20260905032209 56 245 9.0 17.0 0.00 0.50 0.05 88 1002.3
20260905031707 56 259 9.0 14.0 0.00 0.50 0.05 88 1002.2
20260905030707 56 241 12.0 22.0 0.00 0.50 0.05 87 1002.2
20260905024708 55 257 10.0 17.0 0.00 0.50 0.05 87 1002.1
20260905024208 55 265 7.0 17.0 0.00 0.50 0.05 87 1002.0
20260905022709 55 266 10.0 16.0 0.00 0.50 0.05 87 1001.8
20260905021707 55 270 14.0 24.0 0.00 0.50 0.05 88 1001.7
20260905020706 55 263 10.0 16.0 0.00 0.50 0.05 88 1001.7
20260905020208 55 285 14.0 21.0 0.00 0.50 0.05 88 1001.6
20260905015707 55 256 12.0 21.0 0.00 0.50 0.05 88 1001.6
20260905013706 55 272 11.0 21.0 0.00 0.50 0.05 89 1001.3
20260905012208 55 278 13.0 24.0 0.01 0.50 0.05 90 1001.0
20260905011706 56 259 14.0 21.0 0.01 0.50 0.05 90 1001.0
20260905011206 56 256 13.0 24.0 0.01 0.50 0.05 90 1001.0
20260905005208 56 270 12.0 17.0 0.05 0.50 0.05 90 1000.6
20260905004707 56 268 10.0 18.0 0.05 0.50 0.05 90 1000.6
20260905003207 56 273 10.0 22.0 0.04 0.49 0.04 89 1000.5
20260905002707 56 256 12.0 17.0 0.04 0.49 0.04 89 1000.5
20260905000207 57 260 13.0 21.0 0.04 0.49 0.04 88 1000.3
20260904235706 57 254 12.0 18.0 0.01 0.46 0.01 88 1000.3
20260904235208 57 241 12.0 18.0 0.00 0.45 0.00 88 1000.3
20260904233207 57 255 11.0 17.0 0.00 0.45 0.00 88 1000.3
20260904232708 57 249 12.0 21.0 0.00 0.45 0.00 88 1000.4
20260904232209 57 250 10.0 20.0 0.00 0.45 0.00 87 1000.3
20260904231709 57 261 10.0 16.0 0.00 0.45 0.00 87 1000.1
20260904231207 57 235 11.0 18.0 0.00 0.45 0.00 87 1000.1
20260904230708 57 257 14.0 21.0 0.00 0.45 0.00 87 1000.1
20260904225707 57 259 13.0 20.0 0.00 0.45 0.00 87 1000.1
20260904225207 57 256 13.0 18.0 0.00 0.45 0.00 87 1000.1
20260904224708 57 266 9.0 16.0 0.00 0.45 0.00 87 1000.0
20260904222707 57 270 10.0 15.0 0.00 0.45 0.00 87 999.9
20260904221707 57 252 11.0 21.0 0.00 0.45 0.00 87 999.9
20260904220708 57 269 10.0 21.0 0.00 0.45 0.00 87 1000.0
20260904220206 57 257 14.0 26.0 0.00 0.45 0.00 88 1000.0
20260904215206 57 277 10.0 16.0 0.00 0.45 0.45 88 999.9
20260904214707 57 254 11.0 22.0 0.00 0.45 0.45 87 999.8
20260904212707 56 247 11.0 23.0 0.00 0.45 0.45 88 999.6
20260904212206 56 252 13.0 23.0 0.00 0.45 0.45 88 999.6
20260904211708 56 256 11.0 20.0 0.00 0.45 0.45 88 999.6
20260904210707 56 267 13.0 23.0 0.00 0.45 0.45 88 999.6
20260904210206 56 283 14.0 28.0 0.00 0.45 0.45 88 999.5
20260904205708 56 250 12.0 14.0 0.00 0.45 0.45 88 999.5
20260904205208 56 267 14.0 25.0 0.00 0.45 0.45 88 999.3
20260904204206 56 267 13.0 21.0 0.00 0.45 0.45 88 999.3
20260904202706 56 273 14.0 22.0 0.00 0.45 0.45 89 999.2
20260904202207 56 258 13.0 24.0 0.00 0.45 0.45 89 999.2
20260904201207 57 257 16.0 26.0 0.00 0.45 0.45 89 999.0
20260904195707 57 259 17.0 30.0 0.00 0.45 0.45 91 998.9
20260904195208 57 259 15.0 28.0 0.00 0.45 0.45 90 998.7
20260904194707 57 266 11.0 22.0 0.00 0.45 0.45 91 998.7
20260904194207 57 276 16.0 22.0 0.00 0.45 0.45 91 998.7
20260904193708 57 271 16.0 21.0 0.00 0.45 0.45 91 998.5
20260904193206 58 274 12.0 18.0 0.00 0.45 0.45 91 998.2
20260904191709 58 263 11.0 18.0 0.00 0.45 0.45 92 998.2
20260904184707 58 245 14.0 24.0 0.00 0.45 0.45 91 997.6
20260904183206 57 285 10.0 16.0 0.00 0.45 0.45 91 997.5
20260904182706 57 234 4.0 14.0 0.00 0.45 0.45 91 997.4
20260904182208 57 252 3.0 13.0 0.00 0.45 0.45 91 997.4
20260904181206 57 252 3.0 7.0 0.02 0.45 0.45 91 997.4
20260904180708 57 256 3.0 6.0 0.05 0.45 0.45 91 997.4
20260904175706 57 248 4.0 7.0 0.09 0.45 0.45 91 997.4
20260904175206 57 241 1.0 6.0 0.10 0.45 0.45 90 997.3
20260904173207 57 227 3.0 7.0 0.15 0.45 0.45 90 997.4
20260904172707 57 219 4.0 6.0 0.15 0.45 0.45 90 997.4
20260904171706 58 228 3.0 7.0 0.14 0.44 0.44 89 997.5
20260904170207 59 254 7.0 9.0 0.07 0.37 0.37 89 997.4
20260904165707 59 222 4.0 8.0 0.06 0.36 0.36 89 997.3
20260904164707 59 262 7.0 10.0 0.04 0.34 0.34 89 997.3
20260904164206 59 225 6.0 8.0 0.02 0.32 0.32 89 997.3
20260904161208 60 225 6.0 10.0 0.01 0.30 0.30 90 997.2
20260904155206 61 249 7.0 10.0 0.01 0.30 0.30 91 997.5
20260904154206 61 209 4.0 6.0 0.01 0.30 0.30 91 997.6
20260904153706 61 224 5.0 8.0 0.01 0.30 0.30 91 997.5
20260904152206 61 299 4.0 7.0 0.00 0.29 0.29 91 997.5
20260904151707 61 227 4.0 6.0 0.00 0.29 0.29 92 997.5
20260904150206 60 241 2.0 7.0 0.00 0.29 0.29 92 997.6
20260904143707 59 189 5.0 10.0 0.00 0.29 0.29 92 997.5
20260904143208 59 179 5.0 6.0 0.00 0.29 0.29 92 997.6
20260904142707 58 184 4.0 5.0 0.00 0.30 0.29 92 997.8
20260904142206 58 176 2.0 7.0 0.01 0.30 0.29 92 997.8
20260904141706 58 219 4.0 7.0 0.01 0.32 0.29 92 997.9
20260904141207 58 220 3.0 6.0 0.04 0.33 0.29 92 997.9
20260904140709 58 221 3.0 6.0 0.06 0.33 0.29 91 998.0
20260904135708 58 244 2.0 9.0 0.09 0.33 0.29 91 998.1
20260904134206 57 222 5.0 8.0 0.09 0.33 0.29 91 998.1
20260904133706 57 289 2.0 7.0 0.10 0.33 0.29 91 998.2
20260904132207 60 285 12.0 18.0 0.10 0.32 0.28 91 998.2
20260904131706 61 288 14.0 20.0 0.11 0.32 0.28 92 998.2
20260904131207 61 236 3.0 13.0 0.07 0.29 0.24 92 997.8
20260904130706 61 276 3.0 9.0 0.05 0.28 0.22 92 997.8
20260904125706 61 206 6.0 13.0 0.04 0.26 0.20 92 997.6
20260904125206 61 190 7.0 13.0 0.04 0.26 0.20 92 997.6
20260904124208 61 201 7.0 10.0 0.06 0.26 0.20 92 997.6